TimeMST,TemperatureF,Dew PointF,Humidity,Sea Level PressureIn,VisibilityMPH,Wind Direction,Wind SpeedMPH,Gust SpeedMPH,PrecipitationIn,Events,Conditions,WindDirDegrees,DateUTC
12:53 AM,30.9,16.0,54,30.00,10.0,West,8.1,16.1,N/A,,Partly Cloudy,260,2013-02-22 07:53:00
1:53 AM,30.0,16.0,56,30.00,10.0,West,12.7,-,N/A,,Partly Cloudy,280,2013-02-22 08:53:00
2:53 AM,30.0,17.1,59,30.00,10.0,West,15.0,-,N/A,,Clear,260,2013-02-22 09:53:00
3:53 AM,30.0,16.0,56,30.00,10.0,West,15.0,-,N/A,,Clear,260,2013-02-22 10:53:00
4:53 AM,30.0,16.0,56,30.00,10.0,West,17.3,-,N/A,,Partly Cloudy,260,2013-02-22 11:53:00
5:53 AM,28.9,15.1,56,30.02,10.0,West,12.7,-,N/A,,Partly Cloudy,260,2013-02-22 12:53:00
6:53 AM,28.9,14.0,54,30.03,10.0,Calm,Calm,-,N/A,,Mostly Cloudy,0,2013-02-22 13:53:00
7:53 AM,26.1,16.0,66,30.04,10.0,East,3.5,-,N/A,,Overcast,80,2013-02-22 14:53:00
8:53 AM,28.9,17.1,61,30.03,10.0,Calm,Calm,-,N/A,,Mostly Cloudy,0,2013-02-22 15:53:00
9:53 AM,34.0,12.9,42,29.99,10.0,South,8.1,-,N/A,,Mostly Cloudy,180,2013-02-22 16:53:00
10:53 AM,36.0,12.9,39,29.98,10.0,Calm,Calm,-,N/A,,Overcast,0,2013-02-22 17:53:00
11:53 AM,39.9,12.9,33,29.93,10.0,West,12.7,-,N/A,,Mostly Cloudy,270,2013-02-22 18:53:00
12:53 PM,42.1,12.9,31,29.88,10.0,West,9.2,-,N/A,,Mostly Cloudy,280,2013-02-22 19:53:00
1:53 PM,41.0,14.0,33,29.85,10.0,West,21.9,29.9,N/A,,Mostly Cloudy,280,2013-02-22 20:53:00
2:53 PM,43.0,15.1,32,29.83,10.0,West,10.4,17.3,N/A,,Overcast,270,2013-02-22 21:53:00
3:53 PM,42.1,15.1,34,29.80,10.0,West,12.7,20.7,N/A,,Partly Cloudy,260,2013-02-22 22:53:00
4:53 PM,42.1,15.1,34,29.78,10.0,West,9.2,-,N/A,,Scattered Clouds,270,2013-02-22 23:53:00
5:53 PM,41.0,16.0,36,29.78,10.0,WSW,4.6,-,N/A,,Mostly Cloudy,240,2013-02-23 00:53:00
6:53 PM,39.9,17.1,40,29.75,10.0,South,8.1,-,N/A,,Mostly Cloudy,180,2013-02-23 01:53:00
7:53 PM,39.9,17.1,40,29.74,10.0,SSW,10.4,-,N/A,,Overcast,200,2013-02-23 02:53:00
8:53 PM,41.0,18.0,40,29.72,10.0,South,10.4,-,N/A,,Overcast,190,2013-02-23 03:53:00
9:53 PM,41.0,18.0,40,29.70,10.0,Variable,3.5,-,N/A,,Mostly Cloudy,0,2013-02-23 04:53:00
10:53 PM,39.9,19.0,43,29.69,10.0,South,6.9,-,N/A,,Overcast,170,2013-02-23 05:53:00
11:53 PM,37.9,19.0,47,29.66,10.0,South,9.2,-,N/A,,Mostly Cloudy,170,2013-02-23 06:53:00